Regional Weather Roundup
Issued by NWS

Home | Current Version | Previous Version | Graphics & Text | Print | Product List | Glossary On
Versions: 1 2 3 4 5 6 7 8 9 10 11 12 13 14 15 16 17 18 19 20 21 22 23 24 25 26 27 28 29 30 31 32 33 34 35 36 37 38 39 40 41 42 43 44 45 46 47 48 49 50
000
ASUS43 KDMX 212306
RWRIA

WEATHER ROUNDUP FOR IOWA
NATIONAL WEATHER SERVICE DES MOINES IA
500 PM CST SUN JAN 21 2018

NOTE: "FAIR" INDICATES FEW OR NO CLOUDS BELOW 12,000 FEET WITH NO
SIGNIFICANT WEATHER AND/OR OBSTRUCTIONS TO VISIBILITY.

* - THESE STATIONS ARE NOT NWS STATIONS...THUS NOT UNDER NWS
QUALITY CONTROL.  THEY ALSO DO NOT REPORT WEATHER SUCH
AS PRECIPITATION OR FOG.

IAZ001>003-012>014-020>022-031>034-043>046-220000-
   NORTHWEST IOWA

CITY           SKY/WX    TMP DP  RH WIND       PRES   REMARKS
CARROLL *      LGT RAIN  36  36 100 NE17      29.77S VSB 3/4 WCI  25
CHEROKEE *     CLOUDY    38  31  77 NE15G21   29.82R WCI  29
DENISON *      CLOUDY    36  36 100 NE17G23   29.77S FOG     WCI  25
LE MARS *      CLOUDY    41  30  65 NE17G25   29.81S
ORANGE CITY *  CLOUDY    39  34  81 NE10G17   29.82F WCI  32
SHELDON *      CLOUDY    37  32  81 NE17      29.82S WCI  28
SIOUX CITY     CLOUDY    40  29  64 NE17      29.79S WCI  31
SPENCER        CLOUDY    39  31  72 NE16      29.84R WCI  30
STORM LAKE *   CLOUDY    36  34  93 NE18G25   29.79S FOG     WCI  25
$$

IAZ055>058-069>071-079>083-090>094-220000-
   SOUTHWEST IOWA

CITY           SKY/WX    TMP DP  RH WIND       PRES   REMARKS
ATLANTIC *     FOG       39  39 100 NE9       29.73R VSB 1/4 WCI  33
AUDUBON *      FOG       37  36  93 NE12      29.77R VSB 1   WCI  30
CLARINDA *     CLOUDY    46  46 100 NE10        N/A  FOG
COUNCIL BLFS * FOG       39  39 100 NE14      29.70F VSB 1/4 WCI  31
CRESTON *      FOG       41  41 100 NE13      29.73S VSB<1/4
HARLAN  *      MIX PCPN  37  37 100 NE13      29.77R VSB 1   WCI  29
LAMONI         CLOUDY    51  48  89 E3        29.72S
RED OAK *      CLOUDY    43  43 100 NE9       29.71R FOG
SHENANDOAH *   CLOUDY    45  45 100 NE12      29.69S FOG
$$

IAZ047>049-059>061-072>074-084-220000-
   CENTRAL IOWA

CITY           SKY/WX    TMP DP  RH WIND       PRES   REMARKS
AMES           FOG       39  39 100 NE10      29.78F VSB 3/4 WCI  32
ANKENY *       FOG       39  39 100 NE6       29.78F VSB 1/4 WCI  35
BOONE *        FOG       37  37 100 NE14      29.77S VSB 1/4 WCI  29
CHARITON *     CLOUDY    46  45  93 NE7       29.74S
DES MOINES     FOG       41  40  96 NE8       29.76F VSB 1/8
GRINNELL*      FOG       39  38  97 E10       29.79S VSB 1/4 WCI  32
KNOXVILLE *    FOG       41  41 100 E7        29.75S VSB<1/4
MARSHALLTOWN   FOG       39  39 100 NE9       29.80R VSB 1/2 WCI  33
NEWTON *       FOG       39  39 100 NE10      29.78S VSB<1/4 WCI  32
PELLA *        FOG       41  41  99 E3        29.79R VSB 1
PERRY *        CLOUDY    40  39  99 NE9       29.77S FOG     WCI  34
$$

IAZ004>006-015-016-023>025-035-036-220000-
   NORTH CENTRAL IOWA

CITY           SKY/WX    TMP DP  RH WIND       PRES   REMARKS
ALGONA *       CLOUDY    36 N/A N/A NE14      29.84R WCI  27
CLARION *      CLOUDY    36  36 100 NE14      29.82R FOG     WCI  27
ESTHERVILLE    CLOUDY    36  32  85 N15       29.85R WCI  27
FORT DODGE *   MIX PCPN  36  35  96 NE12      29.82R FOG     WCI  28
MASON CITY     CLOUDY    36  33  89 NE13      29.85F FOG     WCI  27
FOREST CITY *  CLOUDY    37  34  87 NE10      29.84S WCI  30
WEBSTER CITY * CLOUDY    37  37 100 NE13      29.78S FOG     WCI  29
IOWA FALLS *   RAIN      37  36  97 NE14      29.81F WCI  28
$$

IAZ007>011-017>019-026>030-037>042-050>054-066-220000-
   NORTHEAST IOWA

CITY           SKY/WX    TMP DP  RH WIND       PRES   REMARKS
CEDAR RAPIDS   FOG       41  40  96 E8        29.81R VSB 1/2
CHARLES CITY * LGT RAIN  36  36 100 NE12      29.86S VSB 3/4 WCI  27
CLINTON *      LGT RAIN  39  39 100 E9        29.85R VSB 1/4 WCI  33
DECORAH *      CLOUDY    36  36 100 VRB6      29.87R FOG     WCI  31
DUBUQUE        CLOUDY    38  36  92 E9        29.84R FOG     WCI  31
MONTICELLO *   CLOUDY    39  39 100 E6        29.83S FOG     WCI  35
OELWEIN *      FOG       37  37 100 NE13      29.84R VSB 1   WCI  29
WATERLOO       FOG       37  36  96 NE12      29.83S VSB 1   WCI  29
$$

IAZ064-065-067-068-078-220000-
   EAST CENTRAL IOWA

CITY           SKY/WX    TMP DP  RH WIND       PRES   REMARKS
DAVENPORT      FOG       42  40  92 E8        29.85S VSB 1/4
IOWA CITY      CLOUDY    43  40  89 NE10      29.81F FOG
MT. PLEASANT * CLOUDY    46  45  93 E7        29.78F
MUSCATINE *    CLOUDY    43  41  93 NE6       29.82S FOG
QUAD CITIES    FOG       44  43  96 E8        29.83R VSB 1
$$

IAZ062-063-075>077-085>089-095>099-220000-
   SOUTHEAST IOWA

CITY           SKY/WX    TMP DP  RH WIND       PRES   REMARKS
BURLINGTON     CLOUDY    52  47  83 E6        29.79R
FAIRFIELD *    CLOUDY    45  43  93 E7        29.77F
FORT MADISON * CLOUDY    52  50  93 E5        29.79S
KEOKUK *       CLOUDY    54  50  87 E6        29.77F
OSKALOOSA *    CLOUDY    41  40  95 E8        29.78R FOG
OTTUMWA        CLOUDY    45  42  89 E8        29.77S
WASHINGTON *   CLOUDY    43  43 100 E9        29.80F FOG
$$

ABBREVIATIONS USED IN REMARKS
   TC - TEMPERATURES IN CELSIUS
  WCI - WIND CHILL INDEX
   HX - HEAT INDEX
  VSB - VISIBILITY
$$





USA.gov is the U.S. government's official web portal to all federal, state and local government web resources and services.